Selinsgrove, PA

1:02 AM EST on November 18, 2019 (GMT -0500)
Penn Valley

Weather History for KSEG - June, 2019

Change the Weather History Date:

Wednesday, June 12, 2019

  Actual Average (WUND) Record (WUND)
Temperature  
Mean Temperature 62 °F -  
Max Temperature 75 °F - - (-1)
Min Temperature 48 °F - - (-1)
Degree Days  
Heating Degree Days 4    
Growing Degree Days 12 (Base 50)    
Moisture  
Dew Point 49 °F    
Average Humidity 62    
Maximum Humidity 96    
Minimum Humidity 35    
Precipitation  
Precipitation 0.00 in - - ()
Sea Level Pressure  
Sea Level Pressure 30.12 in    
Wind  
Wind Speed 4 mph (SSE)    
Max Wind Speed 15 mph    
Max Gust Speed 18 mph    
Visibility 10 miles    
Events      
Averages and records for this station are not official NWS values.
T = Trace of Precipitation, MM = Missing Value Source: NWS Daily Summary

Daily Weather History Graph

Daily Weather History Graph

Search for Another Location

Airport or City:

Astronomy

Jun. 12, 2019 Rise Set
Actual Time 5:35 AM EDT 8:39 PM EDT
Civil Twilight 5:02 AM EDT 9:12 PM EDT
Nautical Twilight 4:19 AM EDT 9:55 PM EDT
Astronomical Twilight 3:29 AM EDT 10:45 PM EDT
Moon 3:42 PM EDT (6/12) 2:51 AM EDT (6/12)
Length of Visible Light 16h 10m
Length of Day
15h 03m
Waxing Gibbous, 76% of the Moon is Illuminated
Jun 12
Waxing Gibbous
Jun 17
Full
Jun 25
Last Quarter
Jul 2
New
Jul 9
First Quarter

Hourly Weather History & Observations

Time (EDT) Temp. Dew Point Humidity Pressure Visibility Wind Dir Wind Speed Gust Speed Precip Events Conditions
12:53 AM 53.1 °F 50.0 °F 89% 30.15 in 10.0 mi Calm Calm - N/A   Clear
1:53 AM 51.1 °F 48.9 °F 92% 30.16 in 10.0 mi Calm Calm - N/A   Clear
2:53 AM 50.0 °F 48.0 °F 93% 30.15 in 10.0 mi NNW 3.5 mph - N/A   Clear
3:53 AM 50.0 °F 48.0 °F 93% 30.16 in 10.0 mi Calm Calm - N/A   Clear
4:53 AM 48.9 °F 46.9 °F 93% 30.17 in 10.0 mi NW 3.5 mph - N/A   Clear
5:53 AM 48.0 °F 46.9 °F 96% 30.19 in 9.0 mi Calm Calm - N/A   Clear
6:53 AM 51.1 °F 48.9 °F 92% 30.20 in 10.0 mi Calm Calm - N/A   Clear
7:53 AM 55.0 °F 50.0 °F 83% 30.22 in 10.0 mi Calm Calm - N/A   Clear
8:53 AM 59.0 °F 52.0 °F 78% 30.22 in 10.0 mi Calm Calm - N/A   Clear
9:53 AM 64.9 °F 52.0 °F 63% 30.20 in 10.0 mi Calm Calm - N/A   Clear
10:53 AM 69.1 °F 48.9 °F 49% 30.19 in 10.0 mi Variable 3.5 mph - N/A   Clear
11:53 AM 71.1 °F 46.9 °F 42% 30.17 in 10.0 mi Variable 3.5 mph - N/A   Clear
12:53 PM 72.0 °F 46.9 °F 41% 30.14 in 10.0 mi SSE 6.9 mph - N/A   Clear
1:53 PM 73.0 °F 48.0 °F 41% 30.12 in 10.0 mi SSE 9.2 mph 18.4 mph N/A   Clear
2:53 PM 75.0 °F 48.0 °F 38% 30.09 in 10.0 mi SE 8.1 mph - N/A   Partly Cloudy
3:53 PM 75.9 °F 46.0 °F 35% 30.07 in 10.0 mi South 9.2 mph - N/A   Partly Cloudy
4:53 PM 73.9 °F 46.9 °F 38% 30.06 in 10.0 mi SE 11.5 mph - N/A   Clear
5:53 PM 73.9 °F 46.9 °F 38% 30.05 in 10.0 mi SSE 13.8 mph - N/A   Partly Cloudy
6:53 PM 72.0 °F 48.0 °F 43% 30.04 in 10.0 mi SSE 10.4 mph - N/A   Clear
7:53 PM 70.0 °F 48.0 °F 46% 30.03 in 10.0 mi SSE 8.1 mph - N/A   Clear
8:53 PM 69.1 °F 48.9 °F 49% 30.04 in 10.0 mi SSE 15.0 mph - N/A   Clear
9:53 PM 66.9 °F 48.9 °F 52% 30.04 in 10.0 mi SSE 10.4 mph - N/A   Clear
10:53 PM 66.0 °F 50.0 °F 56% 30.02 in 10.0 mi South 10.4 mph - N/A   Partly Cloudy
11:53 PM 66.0 °F 52.0 °F 60% 30.00 in 10.0 mi SSE 6.9 mph - N/A   Partly Cloudy